Location: Tucson
(32.2217°N, 110.9265°W)
Time: 01:22:01
(UTC-07:00)

SR - Visible Passes

Search period start: 21 October 2021 00:00
Search period end: 31 October 2021 00:00
Orbit: 582 x 872 km, 66.7° (Epoch: 20 October)

Date Brightness Start Highest point End Pass type
(mag) Time Alt. Az. Time Alt. Az. Time Alt. Az.
21 Oct ? 18:59:44 10° N 19:02:47 26° NE 19:02:47 26° NE visible
21 Oct ? 20:42:02 10° WNW 20:42:14 11° WNW 20:42:14 11° WNW visible
22 Oct ? 18:11:37 10° NNE 18:13:15 12° NE 18:14:53 10° ENE visible
22 Oct ? 19:51:22 10° NW 19:54:40 43° WNW 19:54:40 43° WNW visible
23 Oct ? 19:01:31 10° NNW 19:05:42 60° ENE 19:07:29 33° SE visible
24 Oct ? 18:12:16 10° N 18:15:47 25° ENE 18:19:20 10° ESE visible
24 Oct ? 19:54:19 10° WNW 19:57:36 22° WSW 20:00:26 12° SSW visible
25 Oct ? 19:03:47 10° NW 19:07:57 56° WSW 19:12:14 10° S visible
26 Oct ? 18:14:00 10° NNW 18:18:09 54° ENE 18:22:26 10° SE visible
27 Oct ? 19:06:38 10° NW 19:10:05 24° WSW 19:13:37 10° SSW visible
28 Oct ? 18:16:12 10° NNW 18:20:24 63° WSW 18:24:45 10° SSE visible
29 Oct ? 19:11:24 10° W 19:12:08 10° WSW 19:12:52 10° WSW visible
30 Oct ? 18:18:58 10° NW 18:22:33 27° WSW 18:26:15 10° SSW visible
